Weather History for Siloam Springs, AR

Change the Weather History Date:

Saturday, January 14, 2012

  Actual Average Record
Temperature  
Mean Temperature 39 °F -  
Max Temperature 48 °F 43 °F 55 °F (2004)
Min Temperature 30 °F 27 °F 15 °F (2013)
Degree Days  
Heating Degree Days 26    
Moisture  
Dew Point 21 °F    
Average Humidity 48    
Maximum Humidity 64    
Minimum Humidity 39    
Precipitation  
Precipitation 0.00 in - - ()
Sea Level Pressure  
Sea Level Pressure 30.16 in    
Wind  
Wind Speed 11 mph (West)    
Max Wind Speed 20 mph    
Max Gust Speed 26 mph    
Visibility 10 miles    
Events      
Averages and records for this station are not official NWS values.
T = Trace of Precipitation, MM = Missing Value Source: NWS Daily Summary

Daily Weather History Graph

Daily Weather History Graph

Search for Another Location

Airport:

Trip Planner

Search our weather history database for the weather conditions in past years. The results will help you decide how hot, cold, wet, or windy it might be!

Date:

Astronomy

Jan. 14, 2012 Rise Set
Actual Time 7:28 AM CST 5:25 PM CST
Civil Twilight 7:00 AM CST 5:53 PM CST
Nautical Twilight 6:28 AM CST 6:25 PM CST
Astronomical Twilight 5:58 AM CST 6:56 PM CST
Moon 11:33 PM CST (1/14) 10:26 AM CST (1/14)
Length of Visible Light 10h 52m
Length of Day
9h 56m
Waning Gibbous, 68% of the Moon is Illuminated
Jan 14
Waning Gibbous
Jan 16
Last Quarter
Jan 23
New
Jan 30
First Quarter
Feb 7
Full

Hourly Weather History & Observations

Time (CST) Temp. Windchill Dew Point Humidity Pressure Visibility Wind Dir Wind Speed Gust Speed Precip Events Conditions
12:15 AM 32.0 °F 23.0 °F 12.2 °F 44% 30.10 in 10.0 mi South 11.5 mph - N/A   Clear
12:35 AM 30.2 °F 21.9 °F 14.0 °F 51% 30.09 in 10.0 mi South 9.2 mph - N/A   Clear
12:55 AM 32.0 °F 24.2 °F 14.0 °F 48% 30.10 in 10.0 mi SSW 9.2 mph - N/A   Clear
1:15 AM 30.2 °F 24.3 °F 14.0 °F 51% 30.09 in 10.0 mi SSW 5.8 mph - N/A   Clear
1:35 AM 32.0 °F 24.8 °F 15.8 °F 51% 30.09 in 10.0 mi SSW 8.1 mph - N/A   Clear
1:55 AM 33.8 °F 26.4 °F 15.8 °F 48% 30.09 in 10.0 mi South 9.2 mph - N/A   Clear
2:15 AM 32.0 °F 25.6 °F 15.8 °F 51% 30.09 in 10.0 mi SSW 6.9 mph - N/A   Clear
2:35 AM 32.0 °F 25.6 °F 15.8 °F 51% 30.08 in 10.0 mi South 6.9 mph - N/A   Clear
2:55 AM 33.8 °F 25.8 °F 17.6 °F 52% 30.07 in 10.0 mi South 10.4 mph - N/A   Clear
3:15 AM 33.8 °F 27.0 °F 17.6 °F 52% 30.06 in 10.0 mi SSW 8.1 mph - N/A   Clear
3:55 AM 35.6 °F 28.0 °F 19.4 °F 52% 30.06 in 10.0 mi SSW 10.4 mph - N/A   Clear
4:15 AM 35.6 °F 28.6 °F 19.4 °F 52% 30.06 in 10.0 mi SSW 9.2 mph - N/A   Clear
4:35 AM 35.6 °F 27.5 °F 19.4 °F 52% 30.05 in 10.0 mi SSW 11.5 mph - N/A   Clear
5:15 AM 35.6 °F 27.5 °F 21.2 °F 56% 30.04 in 10.0 mi SSW 11.5 mph - N/A   Clear
5:35 AM 35.6 °F 28.0 °F 19.4 °F 52% 30.04 in 10.0 mi SSW 10.4 mph - N/A   Clear
5:55 AM 35.6 °F 28.6 °F 21.2 °F 56% 30.06 in 10.0 mi WSW 9.2 mph - N/A   Clear
6:15 AM 33.8 °F 24.8 °F 19.4 °F 56% 30.07 in 10.0 mi WSW 12.7 mph - N/A   Clear
6:35 AM 33.8 °F 25.8 °F 21.2 °F 60% 30.08 in 10.0 mi SW 10.4 mph - N/A   Clear
6:55 AM 32.0 °F 24.8 °F 19.4 °F 60% 30.09 in 10.0 mi WSW 8.1 mph - N/A   Clear
7:35 AM 30.2 °F 23.4 °F 19.4 °F 64% 30.11 in 10.0 mi WSW 6.9 mph - N/A   Clear
7:55 AM 32.0 °F 25.6 °F 21.2 °F 64% 30.12 in 10.0 mi West 6.9 mph - N/A   Clear
8:15 AM 33.8 °F 26.4 °F 21.2 °F 60% 30.13 in 10.0 mi WSW 9.2 mph - N/A   Clear
8:35 AM 35.6 °F 29.2 °F 21.2 °F 56% 30.14 in 10.0 mi West 8.1 mph - N/A   Clear
8:55 AM 37.4 °F 30.8 °F 21.2 °F 52% 30.15 in 10.0 mi WSW 9.2 mph - N/A   Clear
9:15 AM 37.4 °F 30.3 °F 21.2 °F 52% 30.17 in 10.0 mi West 10.4 mph - N/A   Clear
9:35 AM 41.0 °F 33.9 °F 21.2 °F 45% 30.19 in 10.0 mi WNW 12.7 mph 18.4 mph N/A   Clear
9:55 AM 42.8 °F 35.1 °F 21.2 °F 42% 30.20 in 10.0 mi NW 16.1 mph 23.0 mph N/A   Clear
10:15 AM 44.6 °F 37.2 °F 21.2 °F 39% 30.21 in 10.0 mi NW 17.3 mph 23.0 mph N/A   Clear
10:35 AM 44.6 °F 37.4 °F 21.2 °F 39% 30.21 in 10.0 mi WNW 16.1 mph 25.3 mph N/A   Clear
10:55 AM 44.6 °F 37.4 °F 23.0 °F 43% 30.22 in 10.0 mi NW 16.1 mph 25.3 mph N/A   Clear
11:15 AM 46.4 °F 39.0 °F 24.8 °F 43% 30.22 in 10.0 mi NW 19.6 mph 25.3 mph N/A   Clear
11:35 AM 46.4 °F 39.5 °F 24.8 °F 43% 30.22 in 10.0 mi WNW 17.3 mph 23.0 mph N/A   Clear
11:55 AM 46.4 °F 40.1 °F 24.8 °F 43% 30.22 in 10.0 mi WNW 15.0 mph - N/A   Clear
12:15 PM 46.4 °F 39.5 °F 24.8 °F 43% 30.22 in 10.0 mi WNW 17.3 mph - N/A   Clear
12:35 PM 46.4 °F 39.0 °F 24.8 °F 43% 30.22 in 10.0 mi NW 19.6 mph 26.5 mph N/A   Clear
12:55 PM 48.2 °F - 24.8 °F 40% 30.22 in 10.0 mi West 18.4 mph - N/A   Clear
1:15 PM 48.2 °F - 24.8 °F 40% 30.21 in 10.0 mi WNW 15.0 mph 24.2 mph N/A   Clear
1:35 PM 48.2 °F - 24.8 °F 40% 30.21 in 10.0 mi NW 17.3 mph 20.7 mph N/A   Clear
1:55 PM 48.2 °F - 24.8 °F 40% 30.21 in 10.0 mi NW 16.1 mph 20.7 mph N/A   Clear
2:15 PM 48.2 °F - 26.6 °F 43% 30.21 in 10.0 mi WNW 15.0 mph 23.0 mph N/A   Clear
2:35 PM 48.2 °F - 24.8 °F 40% 30.22 in 10.0 mi NW 17.3 mph 21.9 mph N/A   Clear
2:55 PM 48.2 °F - 24.8 °F 40% 30.22 in 10.0 mi WNW 11.5 mph 20.7 mph N/A   Clear
3:15 PM 48.2 °F - 24.8 °F 40% 30.22 in 10.0 mi NW 13.8 mph - N/A   Clear
3:35 PM 48.2 °F - 24.8 °F 40% 30.22 in 10.0 mi WNW 12.7 mph 17.3 mph N/A   Clear
3:55 PM 48.2 °F - 24.8 °F 40% 30.22 in 10.0 mi WNW 12.7 mph - N/A   Clear
4:15 PM 48.2 °F - 24.8 °F 40% 30.23 in 10.0 mi WNW 9.2 mph - N/A   Clear
4:35 PM 46.4 °F 41.9 °F 24.8 °F 43% 30.24 in 10.0 mi WNW 9.2 mph - N/A   Clear
4:55 PM 44.6 °F 39.7 °F 24.8 °F 46% 30.24 in 10.0 mi NW 9.2 mph - N/A   Clear
5:15 PM 42.8 °F 38.6 °F 24.8 °F 49% 30.25 in 10.0 mi WNW 6.9 mph - N/A   Clear
5:35 PM 39.2 °F 35.0 °F 23.0 °F 52% 30.26 in 10.0 mi WNW 5.8 mph - N/A   Clear
5:55 PM 41.0 °F 38.0 °F 23.0 °F 49% 30.26 in 10.0 mi WNW 4.6 mph - N/A   Clear
6:15 PM 42.8 °F 41.1 °F 23.0 °F 46% 30.26 in 10.0 mi NW 3.5 mph - N/A   Clear
6:35 PM 37.4 °F 34.9 °F 21.2 °F 52% 30.26 in 10.0 mi NW 3.5 mph - N/A   Clear
6:55 PM 39.2 °F 35.9 °F 24.8 °F 56% 30.27 in 10.0 mi NNW 4.6 mph - N/A   Clear
7:15 PM 35.6 °F - 21.2 °F 56% 30.27 in 10.0 mi Calm Calm - N/A   Clear
7:35 PM - - - N/A% 30.27 in 10.0 mi Calm Calm - N/A   Clear
7:55 PM 37.4 °F - 23.0 °F 56% 30.28 in 10.0 mi Calm Calm - N/A   Clear
8:15 PM 37.4 °F - 23.0 °F 56% 30.29 in 10.0 mi Calm Calm - N/A   Clear
8:55 PM 35.6 °F 32.8 °F 23.0 °F 60% 30.29 in 10.0 mi SE 3.5 mph - N/A   Clear
9:15 PM 33.8 °F 29.6 °F 21.2 °F 60% 30.29 in 10.0 mi East 4.6 mph - N/A   Clear
9:35 PM 33.8 °F 29.6 °F 21.2 °F 60% 30.29 in 10.0 mi ESE 4.6 mph - N/A   Clear
9:55 PM 33.8 °F 29.6 °F 21.2 °F 60% 30.29 in 10.0 mi East 4.6 mph - N/A   Clear
10:15 PM 30.2 °F 26.7 °F 19.4 °F 64% 30.29 in 10.0 mi East 3.5 mph - N/A   Clear
10:55 PM 30.2 °F 26.7 °F 21.2 °F 69% 30.29 in 10.0 mi East 3.5 mph - N/A   Clear
11:15 PM 28.4 °F - 21.2 °F 74% 30.29 in 10.0 mi Calm Calm - N/A   Clear
11:35 PM 26.6 °F 21.2 °F 19.4 °F 74% 30.29 in 10.0 mi ESE 4.6 mph - N/A   Clear
11:55 PM 28.4 °F 23.3 °F 19.4 °F 69% 30.28 in 10.0 mi East 4.6 mph - N/A   Clear